EZY621T EGKK-EGAA

Flight info

Callsign EZY621T
Flight time 1h 12m
Altitude 38000
Route LAM L10 BPK UN601 LESTA UP6 RODOL UM65 TENSO L603 BELOX DCT REMSI DCT UVPOK M147 ROBOP M146 IPSET P6 BELZU
Aircraft A320/M-SDE3FGHIRWY/LB1

Departure

Time 2026-04-14 10:56
Airport London Gatwick Airport (EGKK)

Arrival

Time 2026-04-14 12:08
Airport Belfast International Airport (EGAA)
Time Latitude Longitude Altitude Speed Heading
2026-04-14 10:31 51.16148 -0.18041 205 ft 0 kts 78°
2026-04-14 10:43 51.16146 -0.18054 205 ft 2 kts 78°
2026-04-14 10:44 51.16143 -0.18078 205 ft 2 kts 78°
2026-04-14 10:44 51.16140 -0.18100 206 ft 2 kts 78°
2026-04-14 10:44 51.16137 -0.18124 205 ft 2 kts 78°
2026-04-14 10:44 51.16134 -0.18148 205 ft 2 kts 90°
2026-04-14 10:45 51.16138 -0.18170 206 ft 2 kts 124°
2026-04-14 10:45 51.16149 -0.18186 206 ft 2 kts 156°
2026-04-14 10:45 51.16152 -0.18189 206 ft 0 kts 164°
2026-04-14 10:45 51.16157 -0.18190 206 ft 1 kts 172°
2026-04-14 10:46 51.16160 -0.18191 206 ft 0 kts 168°
2026-04-14 10:48 51.16158 -0.18190 206 ft 2 kts 168°
2026-04-14 10:48 51.16099 -0.18170 205 ft 10 kts 167°
2026-04-14 10:48 51.16021 -0.18143 206 ft 11 kts 168°
2026-04-14 10:48 51.15937 -0.18114 206 ft 12 kts 167°
2026-04-14 10:49 51.15847 -0.18082 205 ft 13 kts 167°
2026-04-14 10:49 51.15751 -0.18047 205 ft 14 kts 168°
2026-04-14 10:49 51.15677 -0.18111 205 ft 14 kts 258°
2026-04-14 10:49 51.15655 -0.18272 205 ft 15 kts 258°
2026-04-14 10:50 51.15631 -0.18440 205 ft 15 kts 257°
2026-04-14 10:50 51.15606 -0.18613 205 ft 16 kts 257°
2026-04-14 10:50 51.15586 -0.18771 205 ft 13 kts 253°
2026-04-14 10:50 51.15509 -0.18818 205 ft 14 kts 166°
2026-04-14 10:51 51.15401 -0.18777 205 ft 17 kts 168°
2026-04-14 10:51 51.15271 -0.18732 205 ft 20 kts 166°
2026-04-14 10:51 51.15146 -0.18703 205 ft 15 kts 205°
2026-04-14 10:51 51.15110 -0.18861 205 ft 16 kts 258°
2026-04-14 10:52 51.15081 -0.19077 205 ft 20 kts 256°
2026-04-14 10:52 51.15049 -0.19296 206 ft 20 kts 258°
2026-04-14 10:52 51.15020 -0.19516 206 ft 20 kts 257°
2026-04-14 10:52 51.14992 -0.19739 205 ft 20 kts 262°
2026-04-14 10:53 51.14960 -0.19947 206 ft 19 kts 256°
2026-04-14 10:53 51.14929 -0.20158 205 ft 19 kts 259°
2026-04-14 10:53 51.14901 -0.20373 206 ft 19 kts 257°
2026-04-14 10:53 51.14873 -0.20589 206 ft 19 kts 257°
2026-04-14 10:54 51.14844 -0.20804 206 ft 19 kts 260°
2026-04-14 10:54 51.14813 -0.21024 205 ft 20 kts 257°
2026-04-14 10:54 51.14774 -0.21238 205 ft 19 kts 256°
2026-04-14 10:54 51.14703 -0.21385 205 ft 18 kts 168°
2026-04-14 10:55 51.14587 -0.21310 206 ft 17 kts 162°
2026-04-14 10:55 51.14519 -0.21167 205 ft 17 kts 85°
2026-04-14 10:55 51.14548 -0.20962 206 ft 27 kts 78°
2026-04-14 10:55 51.14646 -0.20250 206 ft 101 kts 77°
2026-04-14 10:56 51.14840 -0.18842 214 ft 157 kts 77°
2026-04-14 10:56 51.15125 -0.17110 649 ft 168 kts 79°
2026-04-14 10:56 51.15419 -0.15315 1388 ft 167 kts 82°
2026-04-14 10:56 51.15648 -0.13561 2098 ft 166 kts 85°
2026-04-14 10:57 51.15873 -0.11677 2583 ft 182 kts 85°
2026-04-14 10:57 51.16134 -0.09560 3038 ft 202 kts 84°
2026-04-14 10:57 51.16501 -0.07293 3482 ft 226 kts 72°
2026-04-14 10:57 51.17327 -0.05006 4024 ft 248 kts 57°
2026-04-14 10:58 51.18404 -0.02758 4566 ft 266 kts 53°
2026-04-14 10:58 51.19590 -0.00381 4922 ft 278 kts 53°
2026-04-14 10:58 51.20795 0.02044 4982 ft 279 kts 53°
2026-04-14 10:58 51.21983 0.04465 4985 ft 279 kts 53°
2026-04-14 10:59 51.23173 0.06914 4985 ft 278 kts 53°
2026-04-14 10:59 51.24330 0.09362 4986 ft 277 kts 58°
2026-04-14 10:59 51.25164 0.12142 4984 ft 275 kts 75°
2026-04-14 10:59 51.25587 0.15075 4987 ft 274 kts 82°
2026-04-14 11:00 51.25918 0.18066 4988 ft 273 kts 82°
2026-04-14 11:00 51.26242 0.21038 4988 ft 273 kts 82°
2026-04-14 11:00 51.26581 0.24032 4993 ft 273 kts 82°
2026-04-14 11:00 51.26927 0.27022 4985 ft 274 kts 82°
2026-04-14 11:01 51.27274 0.29991 5002 ft 274 kts 81°
2026-04-14 11:01 51.27685 0.32971 4994 ft 275 kts 71°
2026-04-14 11:01 51.28785 0.35438 4976 ft 279 kts 37°
2026-04-14 11:01 51.30539 0.36665 4983 ft 279 kts
2026-04-14 11:02 51.32427 0.36362 4986 ft 275 kts 338°
2026-04-14 11:02 51.34189 0.35176 4985 ft 274 kts 334°
2026-04-14 11:02 51.35950 0.33941 4983 ft 274 kts 334°
2026-04-14 11:02 51.37701 0.32748 4985 ft 274 kts 335°
2026-04-14 11:03 51.39460 0.31583 4986 ft 275 kts 335°
2026-04-14 11:03 51.41229 0.30424 4986 ft 275 kts 335°
2026-04-14 11:03 51.43021 0.29257 5106 ft 281 kts 336°
2026-04-14 11:03 51.44825 0.28085 5656 ft 279 kts 335°
2026-04-14 11:04 51.46618 0.26922 5952 ft 277 kts 335°
2026-04-14 11:04 51.48393 0.25769 5981 ft 276 kts 335°
2026-04-14 11:04 51.50169 0.24613 5982 ft 276 kts 335°
2026-04-14 11:04 51.51953 0.23449 5981 ft 276 kts 335°
2026-04-14 11:05 51.53735 0.22284 5983 ft 276 kts 335°
2026-04-14 11:05 51.55519 0.21119 5982 ft 276 kts 335°
2026-04-14 11:05 51.57295 0.19960 5982 ft 276 kts 335°
2026-04-14 11:05 51.59062 0.18802 5981 ft 276 kts 335°
2026-04-14 11:06 51.60833 0.17643 5977 ft 276 kts 335°
2026-04-14 11:06 51.62634 0.16463 5973 ft 276 kts 335°
2026-04-14 11:06 51.64308 0.15071 5971 ft 273 kts 320°
2026-04-14 11:06 51.65612 0.12870 5970 ft 269 kts 302°
2026-04-14 11:07 51.66629 0.10374 5974 ft 269 kts 299°
2026-04-14 11:07 51.67623 0.07814 5988 ft 269 kts 299°
2026-04-14 11:07 51.68627 0.05247 5966 ft 269 kts 299°
2026-04-14 11:07 51.69626 0.02716 5970 ft 268 kts 300°
2026-04-14 11:08 51.70641 0.00165 6028 ft 272 kts 300°
2026-04-14 11:08 51.71667 -0.02406 6643 ft 277 kts 300°
2026-04-14 11:08 51.72694 -0.04974 7716 ft 273 kts 300°
2026-04-14 11:08 51.73710 -0.07518 8620 ft 274 kts 301°
2026-04-14 11:09 51.74841 -0.09968 9430 ft 279 kts 311°
2026-04-14 11:09 51.76313 -0.11977 10248 ft 283 kts 324°
2026-04-14 11:09 51.78021 -0.13677 10805 ft 296 kts 327°
2026-04-14 11:10 51.81689 -0.17109 12127 ft 310 kts 327°
2026-04-14 11:10 51.83543 -0.18850 12904 ft 312 kts 327°
2026-04-14 11:10 51.85421 -0.20625 13622 ft 316 kts 327°
2026-04-14 11:10 51.87302 -0.22414 14305 ft 318 kts 327°
2026-04-14 11:11 51.89222 -0.24246 15026 ft 320 kts 327°
2026-04-14 11:11 51.91119 -0.26060 15708 ft 322 kts 327°
2026-04-14 11:11 51.93037 -0.27894 16377 ft 324 kts 327°
2026-04-14 11:11 51.94973 -0.29749 17012 ft 326 kts 327°
2026-04-14 11:12 51.96943 -0.31638 17628 ft 329 kts 327°
2026-04-14 11:12 51.98897 -0.33513 18223 ft 331 kts 327°
2026-04-14 11:12 52.00899 -0.35439 18825 ft 333 kts 328°
2026-04-14 11:12 52.02874 -0.37336 19433 ft 334 kts 328°
2026-04-14 11:13 52.04856 -0.39246 20030 ft 336 kts 328°
2026-04-14 11:13 52.06861 -0.41180 20604 ft 337 kts 328°
2026-04-14 11:13 52.08895 -0.43141 21183 ft 338 kts 328°
2026-04-14 11:13 52.10897 -0.45072 21748 ft 339 kts 327°
2026-04-14 11:14 52.12927 -0.47036 22319 ft 340 kts 328°
2026-04-14 11:14 52.14947 -0.48990 22869 ft 341 kts 327°
2026-04-14 11:14 52.16992 -0.50974 23374 ft 342 kts 327°
2026-04-14 11:14 52.19045 -0.52968 23892 ft 344 kts 327°
2026-04-14 11:15 52.21066 -0.54931 24411 ft 345 kts 327°
2026-04-14 11:15 52.23121 -0.56926 24939 ft 345 kts 327°
2026-04-14 11:15 52.25196 -0.58946 25423 ft 347 kts 327°
2026-04-14 11:15 52.27245 -0.60945 25874 ft 348 kts 327°
2026-04-14 11:16 52.29334 -0.62979 26344 ft 349 kts 327°
2026-04-14 11:16 52.31421 -0.65021 26812 ft 350 kts 326°
2026-04-14 11:16 52.33506 -0.67062 27264 ft 352 kts 326°
2026-04-14 11:16 52.35601 -0.69114 27682 ft 354 kts 326°
2026-04-14 11:17 52.37709 -0.71178 28088 ft 355 kts 325°
2026-04-14 11:17 52.39856 -0.73281 28484 ft 357 kts 325°
2026-04-14 11:17 52.41974 -0.75361 28855 ft 359 kts 325°
2026-04-14 11:17 52.44121 -0.77476 29263 ft 360 kts 325°
2026-04-14 11:18 52.46255 -0.79576 29625 ft 361 kts 325°
2026-04-14 11:18 52.48402 -0.81692 29970 ft 363 kts 325°
2026-04-14 11:18 52.50553 -0.83815 30326 ft 364 kts 325°
2026-04-14 11:18 52.52744 -0.85981 30525 ft 369 kts 325°
2026-04-14 11:19 52.54935 -0.88155 30693 ft 373 kts 325°
2026-04-14 11:19 52.57156 -0.90357 30958 ft 375 kts 325°
2026-04-14 11:19 52.59413 -0.92594 31259 ft 376 kts 326°
2026-04-14 11:19 52.61639 -0.94803 31560 ft 376 kts 326°
2026-04-14 11:20 52.63880 -0.97030 31847 ft 377 kts 326°
2026-04-14 11:20 52.66110 -0.99248 32117 ft 377 kts 326°
2026-04-14 11:20 52.68344 -1.01473 32371 ft 378 kts 326°
2026-04-14 11:20 52.70583 -1.03732 32616 ft 379 kts 325°
2026-04-14 11:21 52.72760 -1.06171 32866 ft 378 kts 322°
2026-04-14 11:21 52.74838 -1.08790 33094 ft 378 kts 319°
2026-04-14 11:21 52.76848 -1.11625 33364 ft 377 kts 316°
2026-04-14 11:21 52.78750 -1.14546 33672 ft 375 kts 316°
2026-04-14 11:22 52.80626 -1.17466 33983 ft 372 kts 316°
2026-04-14 11:22 52.82503 -1.20411 34281 ft 370 kts 316°
2026-04-14 11:22 52.84375 -1.23341 34567 ft 368 kts 316°
2026-04-14 11:22 52.86206 -1.26222 34769 ft 368 kts 316°
2026-04-14 11:23 52.88077 -1.29163 34966 ft 368 kts 315°
2026-04-14 11:23 52.89921 -1.32067 35157 ft 368 kts 315°
2026-04-14 11:23 52.91761 -1.34974 35340 ft 368 kts 315°
2026-04-14 11:23 52.93630 -1.37932 35514 ft 368 kts 315°
2026-04-14 11:24 52.95475 -1.40851 35704 ft 367 kts 315°
2026-04-14 11:24 52.97304 -1.43756 35883 ft 367 kts 315°
2026-04-14 11:24 52.99155 -1.46695 36058 ft 367 kts 315°
2026-04-14 11:24 53.01006 -1.49639 36231 ft 367 kts 315°
2026-04-14 11:25 53.02841 -1.52559 36382 ft 368 kts 315°
2026-04-14 11:25 53.04680 -1.55490 36522 ft 368 kts 314°
2026-04-14 11:25 53.06524 -1.58432 36659 ft 369 kts 315°
2026-04-14 11:25 53.08369 -1.61383 36767 ft 370 kts 315°
2026-04-14 11:26 53.10226 -1.64351 36888 ft 371 kts 314°
2026-04-14 11:26 53.12119 -1.67387 37054 ft 372 kts 314°
2026-04-14 11:26 53.13978 -1.70367 37203 ft 373 kts 314°
2026-04-14 11:26 53.15835 -1.73351 37341 ft 373 kts 314°
2026-04-14 11:27 53.17720 -1.76377 37456 ft 374 kts 314°
2026-04-14 11:27 53.19586 -1.79351 37537 ft 376 kts 314°
2026-04-14 11:27 53.21557 -1.82248 37664 ft 378 kts 317°
2026-04-14 11:27 53.23637 -1.85019 37793 ft 379 kts 319°
2026-04-14 11:28 53.28006 -1.90042 37930 ft 384 kts 324°
2026-04-14 11:28 53.32611 -1.94531 38004 ft 387 kts 326°
2026-04-14 11:29 53.37284 -1.98978 38003 ft 386 kts 326°
2026-04-14 11:29 53.41961 -2.03426 38007 ft 386 kts 326°
2026-04-14 11:30 53.46667 -2.07913 38012 ft 388 kts 326°
2026-04-14 11:30 53.51339 -2.12381 38007 ft 388 kts 325°
2026-04-14 11:31 53.55704 -2.17537 38012 ft 382 kts 316°
2026-04-14 11:31 53.59354 -2.23931 38018 ft 380 kts 306°
2026-04-14 11:32 53.62231 -2.31400 38013 ft 380 kts 297°
2026-04-14 11:32 53.64316 -2.39548 38009 ft 380 kts 292°
2026-04-14 11:33 53.66233 -2.47827 38003 ft 380 kts 292°
2026-04-14 11:34 53.69067 -2.60236 37995 ft 380 kts 292°
2026-04-14 11:34 53.70949 -2.68540 38004 ft 380 kts 291°
2026-04-14 11:35 53.72834 -2.76888 38001 ft 379 kts 291°
2026-04-14 11:35 53.74698 -2.85189 37996 ft 380 kts 291°
2026-04-14 11:36 53.76567 -2.93532 37993 ft 381 kts 291°
2026-04-14 11:36 53.78427 -3.01866 37986 ft 380 kts 291°
2026-04-14 11:37 53.80279 -3.10211 37988 ft 380 kts 291°
2026-04-14 11:37 53.82130 -3.18576 37984 ft 379 kts 291°
2026-04-14 11:38 53.83963 -3.26902 37979 ft 379 kts 291°
2026-04-14 11:38 53.85804 -3.35303 37983 ft 379 kts 291°
2026-04-14 11:39 53.87624 -3.43648 37981 ft 379 kts 291°
2026-04-14 11:39 53.88534 -3.47820 37724 ft 380 kts 291°
2026-04-14 11:39 53.89438 -3.51985 37404 ft 376 kts 291°
2026-04-14 11:39 53.90336 -3.56115 37086 ft 372 kts 290°
2026-04-14 11:40 53.91219 -3.60206 36769 ft 368 kts 291°
2026-04-14 11:40 53.92085 -3.64228 36463 ft 367 kts 291°
2026-04-14 11:40 53.92955 -3.68264 36175 ft 367 kts 290°
2026-04-14 11:40 53.93790 -3.72150 35948 ft 366 kts 290°
2026-04-14 11:41 53.94650 -3.76240 35711 ft 366 kts 288°
2026-04-14 11:41 53.95385 -3.80319 35477 ft 366 kts 286°
2026-04-14 11:41 53.96011 -3.84499 35242 ft 367 kts 284°
2026-04-14 11:41 53.96516 -3.88730 35007 ft 367 kts 282°
2026-04-14 11:42 53.96924 -3.92993 34760 ft 367 kts 281°
2026-04-14 11:42 53.97316 -3.97248 34370 ft 367 kts 281°
2026-04-14 11:42 53.97704 -4.01524 33790 ft 366 kts 281°
2026-04-14 11:42 53.98091 -4.05773 33109 ft 367 kts 281°
2026-04-14 11:43 53.98586 -4.10003 32392 ft 367 kts 284°
2026-04-14 11:43 53.99237 -4.14176 31670 ft 368 kts 287°
2026-04-14 11:43 54.00030 -4.18237 31183 ft 363 kts 289°
2026-04-14 11:43 54.00966 -4.22213 30705 ft 359 kts 292°
2026-04-14 11:44 54.02019 -4.26006 30249 ft 355 kts 295°
2026-04-14 11:44 54.03183 -4.29617 29784 ft 351 kts 298°
2026-04-14 11:44 54.04479 -4.33110 29336 ft 347 kts 301°
2026-04-14 11:44 54.05837 -4.36459 28914 ft 343 kts 302°
2026-04-14 11:45 54.07201 -4.39760 28489 ft 340 kts 302°
2026-04-14 11:45 54.08558 -4.43023 28031 ft 337 kts 302°
2026-04-14 11:45 54.09896 -4.46256 27526 ft 336 kts 302°
2026-04-14 11:45 54.11229 -4.49504 26998 ft 335 kts 302°
2026-04-14 11:46 54.12473 -4.52534 26508 ft 334 kts 302°
2026-04-14 11:46 54.13799 -4.55769 26011 ft 332 kts 302°
2026-04-14 11:46 54.14968 -4.58622 25565 ft 331 kts 302°
2026-04-14 11:46 54.16340 -4.61972 25053 ft 330 kts 302°
2026-04-14 11:47 54.17640 -4.65149 24661 ft 328 kts 301°
2026-04-14 11:47 54.18844 -4.68092 24318 ft 327 kts 302°
2026-04-14 11:47 54.20132 -4.71240 23838 ft 328 kts 302°
2026-04-14 11:47 54.21448 -4.74459 23255 ft 331 kts 301°
2026-04-14 11:48 54.22763 -4.77689 22616 ft 336 kts 302°
2026-04-14 11:48 54.24107 -4.80995 21940 ft 341 kts 302°
2026-04-14 11:48 54.25454 -4.84306 21259 ft 346 kts 302°
2026-04-14 11:48 54.26830 -4.87699 20599 ft 350 kts 302°
2026-04-14 11:49 54.28223 -4.91133 19932 ft 353 kts 302°
2026-04-14 11:49 54.29616 -4.94575 19282 ft 356 kts 302°
2026-04-14 11:49 54.31025 -4.98059 18622 ft 359 kts 302°
2026-04-14 11:49 54.32446 -5.01577 17962 ft 362 kts 302°
2026-04-14 11:50 54.33876 -5.05120 17304 ft 363 kts 302°
2026-04-14 11:50 54.35310 -5.08681 16646 ft 365 kts 302°
2026-04-14 11:50 54.36745 -5.12252 15989 ft 366 kts 302°
2026-04-14 11:51 54.39572 -5.19287 15093 ft 355 kts 301°
2026-04-14 11:51 54.40954 -5.22741 14662 ft 349 kts 302°
2026-04-14 11:51 54.42313 -5.26145 13875 ft 342 kts 301°
2026-04-14 11:51 54.43637 -5.29462 12833 ft 340 kts 301°
2026-04-14 11:52 54.44998 -5.32669 12360 ft 328 kts 305°
2026-04-14 11:52 54.46456 -5.35627 11956 ft 324 kts 309°
2026-04-14 11:52 54.47989 -5.38415 11534 ft 318 kts 310°
2026-04-14 11:52 54.49493 -5.41096 11126 ft 314 kts 310°
2026-04-14 11:53 54.50959 -5.43836 10709 ft 310 kts 304°
2026-04-14 11:53 54.52076 -5.46924 10381 ft 298 kts 291°
2026-04-14 11:53 54.52811 -5.50215 10131 ft 287 kts 284°
2026-04-14 11:53 54.53402 -5.53391 9994 ft 276 kts 283°
2026-04-14 11:54 54.53967 -5.56503 9825 ft 271 kts 283°
2026-04-14 11:54 54.54524 -5.59572 9459 ft 266 kts 283°
2026-04-14 11:54 54.55078 -5.62600 9101 ft 262 kts 283°
2026-04-14 11:54 54.55632 -5.65603 8765 ft 260 kts 282°
2026-04-14 11:55 54.56193 -5.68655 8419 ft 258 kts 282°
2026-04-14 11:55 54.56742 -5.71629 8092 ft 257 kts 282°
2026-04-14 11:55 54.57282 -5.74556 7774 ft 256 kts 282°
2026-04-14 11:55 54.57816 -5.77457 7456 ft 255 kts 282°
2026-04-14 11:56 54.58351 -5.80368 7133 ft 255 kts 282°
2026-04-14 11:56 54.58886 -5.83273 6826 ft 253 kts 282°
2026-04-14 11:56 54.59412 -5.86133 6591 ft 252 kts 282°
2026-04-14 11:56 54.59965 -5.89177 6385 ft 270 kts 282°
2026-04-14 11:57 54.60521 -5.92249 6180 ft 271 kts 279°
2026-04-14 11:57 54.60659 -5.95407 5958 ft 260 kts 254°
2026-04-14 11:57 54.59982 -5.98211 5886 ft 253 kts 236°
2026-04-14 11:57 54.59240 -6.01001 5874 ft 259 kts 249°
2026-04-14 11:58 54.58828 -6.04033 5874 ft 260 kts 251°
2026-04-14 11:58 54.58351 -6.07022 5869 ft 259 kts 249°
2026-04-14 11:58 54.57841 -6.09984 5868 ft 260 kts 249°
2026-04-14 11:58 54.57322 -6.12968 5866 ft 260 kts 249°
2026-04-14 11:59 54.56805 -6.15932 5865 ft 261 kts 249°
2026-04-14 11:59 54.56283 -6.18918 5865 ft 261 kts 249°
2026-04-14 11:59 54.55765 -6.21905 5866 ft 261 kts 248°
2026-04-14 11:59 54.55250 -6.24888 5862 ft 260 kts 249°
2026-04-14 12:00 54.54731 -6.27890 5858 ft 260 kts 249°
2026-04-14 12:00 54.54223 -6.30844 5856 ft 260 kts 249°
2026-04-14 12:00 54.53708 -6.33847 5858 ft 259 kts 249°
2026-04-14 12:00 54.53199 -6.36807 5860 ft 259 kts 249°
2026-04-14 12:01 54.52684 -6.39784 5854 ft 259 kts 249°
2026-04-14 12:01 54.52179 -6.42743 5853 ft 259 kts 249°
2026-04-14 12:01 54.51670 -6.45716 5813 ft 256 kts 250°
2026-04-14 12:01 54.51489 -6.48752 5404 ft 267 kts 273°
2026-04-14 12:02 54.52182 -6.51793 4946 ft 281 kts 302°
2026-04-14 12:02 54.53646 -6.54037 4531 ft 290 kts 329°
2026-04-14 12:02 54.55474 -6.55438 4228 ft 284 kts 337°
2026-04-14 12:02 54.57315 -6.56325 3973 ft 269 kts 359°
2026-04-14 12:03 54.59101 -6.55750 3965 ft 252 kts 32°
2026-04-14 12:03 54.60340 -6.53977 3958 ft 216 kts 61°
2026-04-14 12:03 54.61121 -6.51921 3964 ft 200 kts 78°
2026-04-14 12:03 54.61385 -6.49697 3977 ft 183 kts 105°
2026-04-14 12:04 54.61152 -6.47638 4110 ft 163 kts 116°
2026-04-14 12:04 54.60824 -6.45812 3789 ft 165 kts 118°
2026-04-14 12:04 54.60444 -6.43885 3326 ft 171 kts 119°
2026-04-14 12:04 54.60071 -6.42000 3127 ft 163 kts 118°
2026-04-14 12:05 54.59711 -6.40197 2940 ft 154 kts 118°
2026-04-14 12:05 54.59417 -6.38466 2747 ft 152 kts 105°
2026-04-14 12:05 54.59717 -6.36629 2483 ft 167 kts 72°
2026-04-14 12:05 54.60340 -6.34986 2177 ft 163 kts 66°
2026-04-14 12:06 54.60989 -6.33417 1748 ft 163 kts 66°
2026-04-14 12:06 54.61657 -6.31863 1440 ft 157 kts 56°
2026-04-14 12:06 54.62559 -6.30881 1294 ft 154 kts 34°
2026-04-14 12:06 54.63522 -6.30131 1067 ft 143 kts 40°
2026-04-14 12:07 54.64114 -6.28971 1034 ft 125 kts 78°
2026-04-14 12:07 54.64356 -6.27567 784 ft 120 kts 85°
2026-04-14 12:07 54.64596 -6.26168 685 ft 124 kts 79°
2026-04-14 12:07 54.64898 -6.24788 486 ft 124 kts 72°
2026-04-14 12:08 54.65257 -6.23414 321 ft 126 kts 68°
2026-04-14 12:08 54.65590 -6.22167 278 ft 74 kts 66°
2026-04-14 12:08 54.65717 -6.21679 278 ft 41 kts 65°
2026-04-14 12:08 54.65807 -6.21373 278 ft 15 kts 50°
2026-04-14 12:09 54.65902 -6.21352 278 ft 14 kts 340°
2026-04-14 12:09 54.65963 -6.21445 277 ft 11 kts 265°
2026-04-14 12:09 54.65933 -6.21575 278 ft 11 kts 244°
2026-04-14 12:09 54.65897 -6.21705 278 ft 12 kts 246°
2026-04-14 12:10 54.65864 -6.21830 278 ft 7 kts 245°
2026-04-14 12:10 54.65853 -6.21871 278 ft 0 kts 245°
2026-04-14 12:12 54.65849 -6.21887 278 ft 4 kts 245°
2026-04-14 12:12 54.65842 -6.21966 278 ft 9 kts 288°
2026-04-14 12:12 54.65898 -6.22028 278 ft 10 kts 357°
2026-04-14 12:12 54.65939 -6.21956 278 ft 6 kts 68°
2026-04-14 12:13 54.65947 -6.21922 278 ft 0 kts 66°